This is the latest recevied weather packets stored in our database for station/object KK7RJD. If no packets are shown the sender has not sent any weather packets the latest 10 day(s).
| Time | Temp. | Humidity | Pressure | Rain* | Wind** | Luminosity | Snow |
|---|---|---|---|---|---|---|---|
| 1777511177 | 9.44° C | 45% | 1021.2 hPa | 0 mm | - | 51 W/m² | - |
| 1777510873 | 9.44° C | 51% | 1021.2 hPa | 0 mm | - | 67 W/m² | - |
| 1777510570 | 9.44° C | 53% | 1021 hPa | 0 mm | - | 74 W/m² | - |
| 1777510266 | 8.89° C | 52% | 1021.2 hPa | 0 mm | - | 76 W/m² | - |
| 1777509963 | 8.89° C | 55% | 1021.1 hPa | 0 mm | - | 81 W/m² | - |
| 1777509658 | 9.44° C | 54% | 1021.2 hPa | 0 mm | - | 93 W/m² | - |
| 1777509355 | 9.44° C | 51% | 1021 hPa | 0 mm | - | 132 W/m² | - |
| 1777509053 | 10° C | 54% | 1021.1 hPa | 0 mm | - | 140 W/m² | - |
| 1777508750 | 10.56° C | 49% | 1021 hPa | 0 mm | - | 100 W/m² | - |
| 1777508447 | 10.56° C | 46% | 1021.1 hPa | 0 mm | - | 84 W/m² | - |
| 1777508144 | 11.11° C | 48% | 1020.9 hPa | 0 mm | - | 118 W/m² | - |
| 1777507840 | 11.11° C | 48% | 1020.9 hPa | 0 mm | - | 230 W/m² | - |
| 1777507538 | 10.56° C | 49% | 1021.1 hPa | 0 mm | - | 255 W/m² | - |
| 1777507234 | 10.56° C | 50% | 1020.9 hPa | 0 mm | - | 285 W/m² | - |
| 1777506932 | 10.56° C | 50% | 1021 hPa | 0 mm | - | 285 W/m² | - |
| 1777506629 | 10° C | 51% | 1020.9 hPa | 0 mm | - | 262 W/m² | - |
| 1777506325 | 10.56° C | 49% | 1021 hPa | 0 mm | - | 62 W/m² | - |
| 1777506021 | 11.11° C | 45% | 1020.8 hPa | 0 mm | - | 164 W/m² | - |
| 1777505717 | 11.67° C | 45% | 1020.9 hPa | 0 mm | - | 118 W/m² | - |
| 1777505415 | 11.67° C | 43% | 1020.8 hPa | 0 mm | - | 291 W/m² | - |
| 1777505111 | 11.67° C | 44% | 1020.7 hPa | 0 mm | - | 211 W/m² | - |
| 1777504808 | 11.11° C | 43% | 1020.8 hPa | 0 mm | - | 422 W/m² | - |
| 1777504505 | 11.11° C | 44% | 1020.8 hPa | 0 mm | - | 325 W/m² | - |
| 1777504200 | 11.11° C | 43% | 1020.8 hPa | 0 mm | - | 201 W/m² | - |
| 1777503896 | 10.56° C | 40% | 1020.8 hPa | 0 mm | - | 281 W/m² | - |
* Rain latest hour (hover to see other rain measurements)
** Current wind speed in m/s (hover to see current wind gust speed)